Погода в Тихуане

Мексика     32°31′13″N   117°01′17″W
темп.,
°C
ветер,
м/с
пор.,
м/с
влажн.,
%
обл.,
%
осадки,
мм/ч
давл.,
гПа
погр.,
м
16 мая, вс
вс1623:00+15зюз3368100 0.1 1015985
02:00+14зюз3371100 0.1 1015760
05:00+14зюз3377100 0.2 1015616
08:00+15юз337585 0.2 1016693
11:00+16зюз4466100 0.3 10161030
14:00+17з446098 0.1 10161086
17:00+16з556499 0.1 10151071
20:00+15з3367100 0.1 1016961
17 мая, пн
пн1723:00+15зюз3374100 0.2 1017642
02:00+14зюз3377100 0.2 1016673
05:00+14з2379100 0.4 1016628
08:00+15з337593 0.2 1016702
11:00+17зсз336295 0.3 10171080
14:00+18зсз546247 0.0 1016867
17:00+18зсз556117 0.0 1015820
20:00+16зсз337199 0.0 1016805
18 мая, вт
вт1823:00+16зсз227199 0.0 1016744
02:00+15зюз2273100 0.0 1015707
05:00+15з217299 0.1 1014618
08:00+16юз326832 0.0 1014681
11:00+19юз32550 0.0 1014728
14:00+21зюз42491 0.0 1012677
17:00+21зюз32512 0.0 1011619
20:00+17з226610 0.0 1012390
19 мая, ср
ср1923:00+17ю22685 0.0 1012293
02:00+15ю348474 0.0 1012426
05:00+15ююз2381100 0.0 1012266
08:00+17ююв2372100 0.0 1012320
11:00+21юз4352100 0.0 1011536
14:00+21юз5551100 0.0 1011515
17:00+19юз446431 0.0 1011597
20:00+16зюз336877 0.0 1012567
20 мая, чт
чт2023:00+15юз337126 0.0 1013620
02:00+14юз347285 0.0 1013736
05:00+14ююз347097 0.0 1012808
08:00+14ююз4567100 0.0 1014952
11:00+15юз556244 0.0 1014959
14:00+17ююз665516 0.0 1013965
17:00+16юз456899 0.0 1011906
20:00+15зюз4472100 0.2 1012790